• In Deutschland
  • Länderverzeichnis
  • Für 7 Tage
  • Wassertemperatur
  • Satellitenkarten
  • Wetterkarte
  • Widgets
  • user-avatar
    Anmelden

    Stündliche Wetter Changchun

    Heute, 23 Oktober, Dienstag

    Zeit Temperatur Niederschläge Wind Luftdruck Luftfeuchtigkeit
    00:00 +11°C° 1 mm 4 m/S 739 mmHg 84%
    01:00 +11°C° 1 mm 4 m/S 738 mmHg 84%
    02:00 +10°C° 1 mm 3 m/S 738 mmHg 83%
    03:00 +10°C° 0.5 mm 3 m/S 738 mmHg 82%
    04:00 +10°C° 0.5 mm 3 m/S 738 mmHg 81%
    05:00 +9°C° 0.5 mm 3 m/S 738 mmHg 79%
    06:00 +9°C° 0 mm 3 m/S 738 mmHg 75%
    07:00 +10°C° 0 mm 4 m/S 738 mmHg 71%
    08:00 +10°C° 0 mm 4 m/S 739 mmHg 67%
    09:00 +11°C° 0 mm 4 m/S 739 mmHg 58%
    10:00 +12°C° 0 mm 4 m/S 739 mmHg 49%
    11:00 +13°C° 0 mm 5 m/S 739 mmHg 40%
    12:00 +13°C° 0 mm 5 m/S 739 mmHg 39%
    13:00 +13°C° 0 mm 5 m/S 739 mmHg 37%
    14:00 +13°C° 0 mm 6 m/S 739 mmHg 36%
    15:00 +12°C° 0 mm 5 m/S 739 mmHg 39%
    16:00 +11°C° 0 mm 4 m/S 739 mmHg 42%
    17:00 +10°C° 0 mm 3 m/S 739 mmHg 46%
    18:00 +9°C° 0 mm 3 m/S 739 mmHg 48%
    19:00 +9°C° 0 mm 3 m/S 740 mmHg 49%
    20:00 +8°C° 0 mm 3 m/S 740 mmHg 51%
    21:00 +8°C° 0 mm 3 m/S 740 mmHg 52%
    22:00 +7°C° 0 mm 3 m/S 741 mmHg 52%
    23:00 +7°C° 0 mm 3 m/S 741 mmHg 53%

    Morgen, 24 Oktober, Mittwoch

    Zeit Temperatur Niederschläge Wind Luftdruck Luftfeuchtigkeit
    00:00 +5°C° 0 mm 3 m/S 741 mmHg 53%
    01:00 +5°C° 0 mm 3 m/S 741 mmHg 54%
    02:00 +5°C° 0 mm 3 m/S 741 mmHg 54%
    03:00 +4°C° 0 mm 3 m/S 741 mmHg 55%
    04:00 +4°C° 0 mm 3 m/S 741 mmHg 55%
    05:00 +4°C° 0 mm 3 m/S 741 mmHg 56%
    06:00 +5°C° 0 mm 3 m/S 742 mmHg 54%
    07:00 +7°C° 0 mm 3 m/S 742 mmHg 52%
    08:00 +8°C° 0 mm 3 m/S 742 mmHg 50%
    09:00 +9°C° 0 mm 3 m/S 742 mmHg 46%
    10:00 +11°C° 0 mm 3 m/S 742 mmHg 43%
    11:00 +13°C° 0 mm 3 m/S 742 mmHg 39%
    12:00 +13°C° 0 mm 3 m/S 742 mmHg 37%
    13:00 +14°C° 0 mm 3 m/S 742 mmHg 36%
    14:00 +14°C° 0 mm 3 m/S 742 mmHg 34%
    15:00 +14°C° 0 mm 2 m/S 742 mmHg 37%
    16:00 +13°C° 0 mm 2 m/S 742 mmHg 40%
    17:00 +12°C° 0 mm 2 m/S 743 mmHg 43%
    18:00 +11°C° 0 mm 1 m/S 743 mmHg 44%
    19:00 +10°C° 0 mm 1 m/S 743 mmHg 45%
    20:00 +10°C° 0 mm 1 m/S 744 mmHg 45%
    21:00 +9°C° 0 mm 1 m/S 744 mmHg 46%
    22:00 +9°C° 0 mm 1 m/S 744 mmHg 46%
    23:00 +7°C° 0 mm 0 m/S 744 mmHg 46%

    übermorgen, 25 Oktober, Donnerstag

    Zeit Temperatur Niederschläge Wind Luftdruck Luftfeuchtigkeit
    00:00 +8°C° 0 mm 1 m/S 745 mmHg 47%
    01:00 +8°C° 0 mm 1 m/S 745 mmHg 48%
    02:00 +8°C° 0 mm 1 m/S 745 mmHg 49%
    03:00 +6°C° 0 mm 2 m/S 744 mmHg 52%
    04:00 +6°C° 0 mm 2 m/S 744 mmHg 55%
    05:00 +6°C° 0 mm 2 m/S 744 mmHg 57%
    06:00 +7°C° 0 mm 3 m/S 744 mmHg 58%
    07:00 +8°C° 0 mm 3 m/S 744 mmHg 59%
    08:00 +9°C° 0 mm 3 m/S 744 mmHg 60%
    09:00 +10°C° 0 mm 4 m/S 743 mmHg 57%
    10:00 +12°C° 0 mm 5 m/S 743 mmHg 53%
    11:00 +14°C° 0 mm 5 m/S 742 mmHg 50%
    12:00 +15°C° 0 mm 6 m/S 742 mmHg 47%
    13:00 +16°C° 0 mm 6 m/S 741 mmHg 44%
    14:00 +17°C° 0 mm 7 m/S 740 mmHg 41%
    15:00 +16°C° 0.3 mm 6 m/S 740 mmHg 51%
    16:00 +15°C° 0.3 mm 5 m/S 740 mmHg 60%
    17:00 +13°C° 0.3 mm 5 m/S 739 mmHg 69%
    18:00 +13°C° 1 mm 6 m/S 739 mmHg 73%
    19:00 +12°C° 1 mm 7 m/S 738 mmHg 76%
    20:00 +12°C° 1 mm 8 m/S 738 mmHg 79%
    21:00 +11°C° 1.8 mm 9 m/S 737 mmHg 81%
    22:00 +11°C° 1.8 mm 9 m/S 737 mmHg 82%
    23:00 +11°C° 1.8 mm 9 m/S 736 mmHg 84%

    26 Oktober, Freitag

    Zeit Temperatur Niederschläge Wind Luftdruck Luftfeuchtigkeit
    00:00 +10°C° 2.1 mm 8 m/S 736 mmHg 83%
    01:00 +9°C° 2.1 mm 6 m/S 735 mmHg 83%
    02:00 +8°C° 2.1 mm 5 m/S 735 mmHg 83%
    03:00 +8°C° 0.8 mm 5 m/S 735 mmHg 79%
    04:00 +7°C° 0.8 mm 5 m/S 735 mmHg 74%
    05:00 +6°C° 0.8 mm 5 m/S 734 mmHg 70%
    06:00 +6°C° 0.1 mm 5 m/S 734 mmHg 67%
    07:00 +6°C° 0.1 mm 5 m/S 734 mmHg 63%
    08:00 +6°C° 0.1 mm 5 m/S 734 mmHg 60%
    09:00 +5°C° 0 mm 6 m/S 734 mmHg 55%
    10:00 +7°C° 0 mm 6 m/S 734 mmHg 50%
    11:00 +8°C° 0 mm 7 m/S 733 mmHg 45%
    12:00 +8°C° 0 mm 7 m/S 733 mmHg 44%
    13:00 +8°C° 0 mm 7 m/S 732 mmHg 44%
    14:00 +8°C° 0 mm 7 m/S 732 mmHg 43%
    15:00 +7°C° 0 mm 6 m/S 731 mmHg 46%
    16:00 +7°C° 0 mm 5 m/S 731 mmHg 49%
    17:00 +6°C° 0 mm 4 m/S 731 mmHg 52%
    18:00 +6°C° 0 mm 5 m/S 731 mmHg 54%
    19:00 +5°C° 0 mm 5 m/S 731 mmHg 56%
    20:00 +5°C° 0 mm 5 m/S 731 mmHg 58%
    21:00 +5°C° 0 mm 5 m/S 731 mmHg 60%
    22:00 +3°C° 0 mm 5 m/S 731 mmHg 62%
    23:00 +3°C° 0 mm 5 m/S 731 mmHg 63%

    27 Oktober, Samstag

    Zeit Temperatur Niederschläge Wind Luftdruck Luftfeuchtigkeit
    00:00 +2°C° 0.1 mm 6 m/S 731 mmHg 67%
    01:00 +2°C° 0.1 mm 6 m/S 731 mmHg 70%
    02:00 +1°C° 0.1 mm 6 m/S 731 mmHg 73%
    03:00 +1°C° 0.1 mm 6 m/S 732 mmHg 71%
    04:00 -1°C° 0.1 mm 6 m/S 732 mmHg 69%
    05:00 -1°C° 0.1 mm 6 m/S 733 mmHg 67%
    06:00 -1°C° 0 mm 7 m/S 734 mmHg 64%
    07:00 -1°C° 0 mm 7 m/S 734 mmHg 62%
    08:00 -1°C° 0 mm 7 m/S 735 mmHg 59%
    09:00 0°C° 0 mm 7 m/S 735 mmHg 55%
    10:00 +2°C° 0 mm 7 m/S 735 mmHg 51%
    11:00 +1°C° 0 mm 8 m/S 736 mmHg 46%
    12:00 +2°C° 0 mm 8 m/S 735 mmHg 43%
    13:00 +2°C° 0 mm 8 m/S 735 mmHg 40%
    14:00 +4°C° 0 mm 8 m/S 735 mmHg 36%
    15:00 +3°C° 0 mm 6 m/S 735 mmHg 38%
    16:00 +2°C° 0 mm 5 m/S 735 mmHg 39%
    17:00 +3°C° 0 mm 4 m/S 735 mmHg 40%
    18:00 +1°C° 0 mm 4 m/S 736 mmHg 41%
    19:00 +1°C° 0 mm 4 m/S 736 mmHg 41%
    20:00 +1°C° 0 mm 5 m/S 736 mmHg 42%
    21:00 +1°C° 0 mm 5 m/S 736 mmHg 44%
    22:00 0°C° 0 mm 5 m/S 736 mmHg 46%
    23:00 0°C° 0 mm 5 m/S 736 mmHg 48%

    28 Oktober, Sonntag

    Zeit Temperatur Niederschläge Wind Luftdruck Luftfeuchtigkeit
    00:00 0°C° 0 mm 4 m/S 736 mmHg 52%
    01:00 -1°C° 0 mm 4 m/S 736 mmHg 57%
    02:00 -1°C° 0 mm 4 m/S 736 mmHg 62%
    03:00 -1°C° 0 mm 4 m/S 736 mmHg 64%
    04:00 -1°C° 0 mm 3 m/S 736 mmHg 67%
    05:00 -1°C° 0 mm 3 m/S 736 mmHg 70%
    06:00 0°C° 0 mm 3 m/S 737 mmHg 67%
    07:00 0°C° 0 mm 4 m/S 737 mmHg 64%
    08:00 +1°C° 0 mm 4 m/S 737 mmHg 61%
    09:00 +3°C° 0 mm 4 m/S 737 mmHg 57%
    10:00 +5°C° 0 mm 4 m/S 736 mmHg 52%
    11:00 +7°C° 0 mm 4 m/S 736 mmHg 48%
    12:00 +7°C° 0 mm 4 m/S 736 mmHg 46%
    13:00 +8°C° 0 mm 4 m/S 735 mmHg 45%
    14:00 +8°C° 0 mm 4 m/S 735 mmHg 44%
    15:00 +8°C° 0 mm 3 m/S 735 mmHg 47%
    16:00 +7°C° 0 mm 2 m/S 735 mmHg 51%
    17:00 +7°C° 0 mm 1 m/S 735 mmHg 55%
    18:00 +7°C° 0 mm 1 m/S 735 mmHg 57%
    19:00 +5°C° 0 mm 2 m/S 735 mmHg 59%
    20:00 +5°C° 0 mm 2 m/S 735 mmHg 60%
    21:00 +4°C° 0.1 mm 3 m/S 735 mmHg 61%
    22:00 +4°C° 0.1 mm 3 m/S 736 mmHg 61%
    23:00 +3°C° 0.1 mm 4 m/S 736 mmHg 61%
    Mehr zeigen